This is the latest recevied weather packets stored in our database for station/object WB4ZUT. If no packets are shown the sender has not sent any weather packets the latest 10 day(s).
| Time | Temp. | Humidity | Pressure | Rain* | Wind** | Luminosity | Snow |
|---|---|---|---|---|---|---|---|
| 1777387930 | 18.33° C | 89% | 1015.7 hPa | 0 mm | - | 622 W/m² | - |
| 1777387626 | 17.78° C | 89% | 1015.7 hPa | 0 mm | - | 204 W/m² | - |
| 1777387324 | 17.78° C | 90% | 1015.7 hPa | 0 mm | - | 202 W/m² | - |
| 1777387023 | 17.78° C | 91% | 1015.9 hPa | 0 mm | - | 184 W/m² | - |
| 1777386719 | 17.78° C | 92% | 1015.6 hPa | 0 mm | - | 160 W/m² | - |
| 1777386417 | 17.22° C | 94% | 1015.5 hPa | 0 mm | - | 220 W/m² | - |
| 1777386114 | 17.22° C | 95% | 1015.4 hPa | 0 mm | - | 184 W/m² | - |
| 1777385810 | 17.22° C | 97% | 1015.5 hPa | 0 mm | - | 190 W/m² | - |
| 1777385507 | 16.67° C | 98% | 1015.6 hPa | 0 mm | - | 158 W/m² | - |
| 1777385204 | 16.67° C | 98% | 1015.6 hPa | 0 mm | - | 148 W/m² | - |
| 1777384900 | 16.67° C | 99% | 1015.6 hPa | 0 mm | - | 113 W/m² | - |
| 1777384598 | 16.11° C | 99% | 1015.5 hPa | 0 mm | - | 57 W/m² | - |
| 1777384292 | 16.67° C | 99% | 1015.7 hPa | 0 mm | - | 101 W/m² | - |
| 1777383987 | 17.22° C | 99% | 1015.7 hPa | 0 mm | - | 60 W/m² | - |
| 1777383684 | 17.22° C | 99% | 1015.5 hPa | 0 mm | - | 143 W/m² | - |
| 1777383381 | 17.22° C | 99% | 1015.6 hPa | 0 mm | - | 157 W/m² | - |
| 1777383077 | 16.67° C | 99% | 1015.4 hPa | 0 mm | - | 124 W/m² | - |
| 1777382774 | 16.67° C | 99% | 1015.4 hPa | 0 mm | - | 140 W/m² | - |
| 1777382470 | 16.67° C | 99% | 1015.3 hPa | 0 mm | - | 150 W/m² | - |
| 1777382165 | 17.22° C | 99% | 1015.4 hPa | 0 mm | - | 88 W/m² | - |
| 1777381862 | 16.67° C | 99% | 1015.3 hPa | 0 mm | - | 141 W/m² | - |
| 1777381561 | 16.67° C | 99% | 1015.4 hPa | 0 mm | - | 117 W/m² | - |
| 1777381256 | 17.22° C | 99% | 1015.2 hPa | 0 mm | - | 86 W/m² | - |
| 1777380955 | 17.22° C | 99% | 1015.2 hPa | 0 mm | - | 87 W/m² | - |
| 1777380651 | 17.22° C | 99% | 1014.9 hPa | 0 mm | - | 96 W/m² | - |
* Rain latest hour (hover to see other rain measurements)
** Current wind speed in m/s (hover to see current wind gust speed)